METEOR 2-17 DEB

Satellite information

Favourite Embed

Satellite Type and Status

DEBRISIN ORBIT

Key statistics

Satellite METEOR 2-17 DEB at a glance.

Uptime

13833

Days in orbit

Revolutions

≈ 14.1

Per day

Orbit

LEO

Low Earth Orbit

Inclination

82.5

Latest

Satellite identification and parameters

Extended collection of information and parameters for METEOR 2-17 DEB.

Object identification

Identified? True

Debris? True

Object name: METEOR 2-17 DEB

International designator: 1988-005M

Object number (NORAD): 29067

Object ID (CCSDS): 29067

Country: COMMONWEALTH OF INDEPENDENT STATES (CIS)

Current information (Y/N): Y

RCS size: SMALL

Orbital parameters

Period: 102.385 minutes

Inclination: 82.52 deg

SMA: 7249.678 km

Apoapsis: 891.504 km

Periapsis: 851.583 km

RAAN: 27.6795 deg

Eccentricy: 0.00275326

Argument of periapsis: 305.8287 deg

Mean anomaly: 54.0327 deg

Mean motion: 14.06451138 rev/day

Mean motion (dot): 0.00005418 rev/day2

B* drag term: 0.003258701 1/REarth

Two-line elements (TLE)

Creation date: Dec. 10, 2025, 10:40 a.m.

Reference frame: TEME

Reference center: EARTH

Epoch: Dec. 9, 2025, 2:23 a.m. UTC

TLE line 0: 0 METEOR 2-17 DEB

TLE line 1: 1 29067U 88005M 25343.09946886 .00005418 00000-0 32587-2 0 9997

TLE line 2: 2 29067 82.5200 27.6795 0027533 305.8287 54.0327 14.06451138623906

Live tracking on map

Real-time ground track for satellite METEOR 2-17 DEB.

In-orbit conjunctions

A list of the most updated potential collisions computed for object METEOR 2-17 DEB.

Target Orbit TCA Probability of collision Miss distance Type
COSMOS 2360 LEO 2025-11-05 16:05:29 0.0001659898 755.0 (m) PAYLOAD
FENGYUN 1C DEB SSO 2024-08-28 15:26:04 0.0001156678 146.0 (m) DEBRIS
MOS 1B (MOMO 1B) SSO 2024-08-11 04:43:23 0.0001119291 247.0 (m) PAYLOAD

Associated space launch

Second generation soviet meteorological satellite

METEOR 2-17 DEB was lifted into orbit during the mission ‘Tsiklon-3 | Meteor-2 17’, on board a Tsiklon-3 space rocket.

The launch took place on Jan. 30, 1988, 10:59 a.m. from 32/1.

For more information about the launch, click the button.

Launch to space Tsiklon-3 | Meteor-2 17
Tsiklon-3 | Meteor-2 17

Agency: N/A

Status: Launch Successful

Launch date: Jan. 30, 1988, 10:59 a.m. UTC

Rocket: Tsiklon-3

Launch pad: 32/1

Location: Plesetsk Cosmodrome, Russian Federation

...

Latest news about this satellite

There are no fresh news available about this satellite. Check back as we update our databases every day.


Newsletter sign-up

Weekly statistics, charts and insights to help you stay on top of the space industry.